Torna al catalogo

STARLINK-37601

AttivoComunicazioniVLEO
NORAD 69450·PAYLOAD·🇺🇸 United States

Lanciato Jun 8, 2026 da Cape Canaveral Space Force Station

Loading…

Prossimi Passaggi (prossime 24 ore)

TLE

AggiornatoSource: CelesTrak SupGP

Epoca: Sep 14, 2026, 21:07 UTC

1 69450C 26127H   26257.88034722  .00017068  00000+0  50410-3 0  2579
2 69450  53.1569 191.9224 0001181  93.1424 144.4486 15.34393903    19

Traccia STARLINK-37601 in tempo reale con AllMySat

Download on the App Store